Location: Aulnoy
(48.8410°N, 3.0967°E)
Time: 09:35:59
(UTC+00:00)

Cosmos 1869 - Pass Details

Date: 09 February 2023
Orbit: 510 x 550 km, 82.5° (Epoch: 23 March)

Event Time Altitude Azimuth Distance (km) Brightness Sun altitude
Rises 17:56:44 0° 348° (NNW) 2,681 6.9 -10.1°
Reaches altitude 10° 17:58:53 10° 346° (NNW) 1,793 6.0 -10.5°
Maximum altitude 18:02:48 71° 263° (W) 575 3.6 -11.1°
Drops below altitude 10° 18:06:45 10° 180° (S) 1,805 6.1 -11.7°
Sets 18:08:55 0° 178° (S) 2,699 6.9 -12.1°
